Wind_Speed
22 22 22 23 24 24 25 25 25 25 24 24 24 25 25 25 26 28 32 34 37 40 40 43 43 43 44 45 44 44 45 46 46 47 46 44 45 45 44 43 43 44 44 42
20 20 20 21 22 23 24 24 24 24 24 24 24 24 25 27 28 29 30 31 33 37 39 40 42 41 42 43 43 44 44 45 45 46 47 47 45 45 45 44 43 43 44 43
20 19 20 20 21 22 23 23 23 23 23 22 23 24 24 25 26 26 28 29 30 33 37 38 40 40 41 42 42 43 44 45 46 45 47 48 48 46 46 45 44 45 45 44
20 20 20 21 21 22 22 22 23 22 22 22 23 24 21 21 23 24 26 27 28 30 33 36 38 40 41 42 42 43 43 44 45 46 46 47 47 47 46 45 44 45 46 46
20 21 21 21 21 21 21 21 22 22 22 23 23 23 20 22 22 23 24 25 25 26 29 32 35 37 39 41 42 43 43 43 44 45 45 45 45 46 45 45 45 46 46 46
20 20 21 21 21 20 20 20 21 22 22 22 22 23 22 22 22 22 22 23 23 25 27 29 32 35 37 40 41 42 43 44 45 45 45 46 45 45 46 46 46 46 47 47
19 20 21 21 20 19 19 20 21 21 21 21 22 23 23 22 22 22 23 23 24 24 25 27 29 32 34 37 40 41 42 43 45 45 45 46 46 47 46 47 46 46 47 47
19 20 20 20 19 19 20 20 20 20 21 21 22 22 21 21 21 22 23 22 23 24 24 27 28 30 32 34 37 39 41 42 44 44 44 45 46 48 47 47 46 45 45 46
19 20 19 19 18 19 20 20 20 20 22 22 23 23 21 21 22 23 23 24 24 24 24 26 28 29 30 32 34 37 38 39 41 43 44 44 45 46 47 47 46 46 45 46
19 19 19 18 19 19 19 19 19 19 21 22 22 21 20 21 22 23 24 24 25 24 25 26 27 29 30 32 33 35 36 37 39 41 43 44 44 44 45 47 46 45 45 46
19 19 19 19 19 19 19 19 19 19 20 21 21 21 19 21 22 23 24 25 24 25 26 25 26 28 30 32 33 33 34 36 37 39 40 42 43 43 44 44 45 45 45 44
19 20 19 19 19 19 19 20 20 20 21 21 22 21 20 22 23 23 24 25 24 25 26 26 27 27 28 30 32 33 33 34 36 37 38 40 42 42 42 43 44 44 45 43
20 20 19 19 19 19 20 20 21 22 22 22 23 21 20 21 23 23 23 24 25 24 24 25 27 28 28 28 30 31 33 33 34 35 36 38 40 40 40 40 42 43 43 43
21 20 19 18 19 20 20 21 22 22 22 23 23 22 21 22 21 22 23 23 23 23 23 24 26 27 28 28 29 30 32 33 33 33 34 35 37 39 38 39 40 41 42 43
22 20 20 20 20 21 21 22 23 23 23 24 22 22 23 23 22 21 22 23 23 23 23 24 25 26 26 26 28 29 30 31 32 33 33 34 36 38 39 39 39 40 41 42
22 21 21 21 21 22 22 22 23 24 24 24 23 22 23 23 23 23 23 23 23 23 23 23 24 25 26 26 27 28 29 30 31 32 32 33 34 35 37 37 37 38 39 40
21 20 20 21 21 22 21 21 22 22 23 23 22 22 22 23 23 23 24 24 24 24 24 24 23 24 25 26 27 26 27 28 29 30 31 32 33 33 34 35 36 36 37 37
19 18 19 20 21 22 21 22 22 22 21 22 22 22 22 22 23 23 23 24 24 25 24 23 23 24 24 25 26 26 26 26 27 28 29 30 31 32 33 33 33 35 35 35
19 18 19 20 20 20 20 21 22 22 21 21 21 21 22 22 22 22 22 22 23 23 23 23 24 25 25 25 25 26 25 25 25 26 27 28 30 31 32 32 32 33 33 33
19 19 20 20 21 21 21 21 21 21 21 21 21 21 21 22 21 20 20 20 20 21 21 21 22 23 25 25 25 26 26 25 26 26 27 28 28 29 31 31 31 32 33 33
20 20 20 20 21 20 21 21 21 21 21 21 21 21 21 21 21 21 20 20 20 20 21 21 21 22 23 24 25 25 25 25 25 26 25 25 26 27 28 29 29 31 32 32
21 21 21 21 21 21 21 21 21 21 21 21 21 21 21 21 21 20 19 19 19 19 20 20 20 21 22 23 24 25 25 24 24 25 25 25 26 26 27 28 28 29 30 31
21 22 22 22 22 22 22 22 21 21 22 22 21 21 21 20 19 19 19 18 18 18 18 18 19 20 21 22 22 23 24 24 24 24 24 25 26 27 27 27 28 28 29 30
21 21 22 22 22 22 22 22 22 22 22 21 21 21 20 19 19 18 18 18 17 17 17 17 18 18 19 19 20 20 21 23 23 24 24 24 25 26 26 27 28 28 29 29
21 22 22 22 22 23 22 22 22 22 21 20 20 20 19 19 18 18 17 17 17 16 16 17 17 18 19 19 19 20 21 21 22 23 24 24 24 25 26 26 26 26 27 28
22 22 22 21 22 22 22 22 22 21 21 20 19 19 19 19 18 18 17 17 16 16 16 16 17 17 18 18 18 19 20 20 21 22 23 23 23 24 24 24 25 25 25 26
Wind_Direction
292 288 286 285 285 283 279 279 281 281 282 277 270 267 266 261 258 255 252 250 248 246 244 242 241 240 239 239 239 239 239 239 239 239 239 241 242 243 243 243 246 247 246 246
294 289 288 288 288 287 284 280 280 280 282 279 274 270 267 263 260 257 254 251 249 247 245 243 241 241 239 238 238 238 238 238 238 239 239 240 243 243 244 245 245 246 244 244
299 293 290 291 291 292 290 285 280 280 283 281 279 271 267 264 263 258 255 256 252 250 247 245 241 240 240 239 238 239 239 240 240 241 241 242 243 245 245 245 244 244 244 244
296 294 292 293 295 294 293 287 282 282 285 282 282 281 269 268 260 257 257 259 256 252 249 246 242 240 240 240 239 240 241 241 241 242 242 243 244 245 245 243 242 243 244 244
296 294 293 294 295 295 295 288 284 283 283 281 282 283 278 275 266 263 259 259 259 254 250 246 243 243 242 241 241 241 241 240 241 242 243 243 244 245 245 244 242 242 244 245
298 297 296 295 295 296 295 292 287 285 285 284 284 285 283 278 273 269 263 261 262 257 251 250 247 245 244 243 242 242 241 241 242 243 244 244 245 246 245 244 242 243 245 245
300 299 297 295 293 294 294 293 291 287 286 288 289 289 287 280 273 269 265 265 265 262 254 251 249 246 244 244 243 243 242 242 243 244 245 245 246 246 246 244 242 243 245 245
301 300 299 296 294 294 293 293 291 288 286 289 290 290 287 279 272 268 267 267 269 262 258 253 250 247 245 245 245 244 243 244 244 244 246 247 247 245 244 244 243 244 244 244
301 299 298 296 295 292 290 291 291 289 287 289 291 289 283 277 271 269 269 267 268 264 259 256 250 247 248 248 246 246 247 247 247 246 247 246 245 245 243 242 242 244 245 245
302 299 297 295 295 294 291 291 293 290 289 291 293 292 286 282 279 274 271 270 268 264 262 257 253 251 250 249 249 250 250 250 249 248 247 245 244 244 242 241 242 245 246 246
302 299 296 293 294 296 292 290 290 289 289 290 292 295 289 286 284 280 275 272 270 267 264 260 256 253 255 253 252 253 253 252 250 248 248 246 245 244 243 243 245 246 246 246
301 298 295 295 295 294 293 291 291 291 291 289 289 292 289 285 282 279 276 273 271 268 263 259 256 255 256 257 256 256 256 255 252 250 248 248 247 246 245 244 245 246 246 246
299 296 293 293 293 292 291 291 290 290 291 289 288 289 286 284 282 278 277 275 270 269 263 258 257 257 259 259 259 258 258 257 255 251 249 247 247 246 244 243 244 245 246 247
299 294 290 290 292 293 293 292 289 288 289 289 289 287 282 282 283 281 278 275 271 269 264 260 259 260 260 261 261 260 260 260 257 253 249 248 247 244 244 244 246 247 247 247
296 292 288 287 287 290 292 292 290 289 289 291 290 288 284 283 283 281 279 275 271 270 266 259 257 260 262 262 262 263 262 261 258 253 250 249 248 246 246 246 247 248 248 247
296 291 287 287 287 289 291 292 292 290 288 289 290 288 289 287 284 282 281 277 273 272 268 261 257 260 260 261 263 264 262 261 259 253 249 248 248 248 248 248 248 249 249 248
299 293 290 289 290 291 292 295 295 294 289 286 287 288 288 288 287 285 282 279 276 274 270 265 262 260 259 260 263 265 261 261 258 254 251 249 249 249 248 248 250 248 248 247
303 297 295 294 294 294 297 295 295 296 294 288 287 287 288 289 289 287 284 280 277 275 273 269 265 262 261 260 262 262 260 258 257 254 252 250 247 246 247 248 247 246 245 244
304 299 299 298 297 299 301 298 297 298 298 294 291 290 290 289 290 287 282 280 278 275 273 270 267 265 264 262 260 259 259 258 255 253 252 250 248 247 246 246 246 245 244 244
302 297 297 299 299 302 303 300 298 298 297 296 294 293 292 290 288 287 284 281 278 275 273 272 271 266 264 264 262 261 260 260 258 256 254 252 250 247 246 246 247 246 245 245
300 297 295 296 299 303 304 302 300 299 301 300 298 295 291 289 289 290 288 284 279 275 273 272 272 269 268 268 267 265 264 262 258 256 255 254 251 248 246 246 246 246 246 246
298 296 295 295 299 302 303 302 300 300 300 300 298 297 294 292 290 289 289 288 284 278 275 274 273 271 269 269 269 267 264 262 258 254 254 253 248 246 246 247 248 248 247 246
297 295 293 295 297 299 300 299 299 299 299 298 296 295 296 295 293 291 289 289 286 282 279 278 275 271 271 269 271 270 264 260 258 254 253 252 248 248 249 248 249 249 247 246
297 294 292 293 295 296 296 296 297 298 298 297 295 293 294 294 293 290 286 285 286 285 282 281 279 274 272 271 270 268 265 258 256 254 253 253 250 249 249 249 249 249 247 246
298 294 293 293 294 293 293 295 296 297 298 297 295 293 292 291 291 289 285 283 284 286 283 283 281 275 273 272 269 267 264 259 255 254 252 251 251 249 248 247 248 248 248 248
297 293 294 295 294 294 294 294 295 297 298 296 294 292 291 290 290 289 286 283 283 285 284 283 284 281 277 273 272 269 264 260 256 252 250 250 249 248 247 248 249 249 248 247
Height
5683 5682 5680 5678 5676 5673 5671 5669 5667 5665 5662 5661 5660 5659 5659 5658 5658 5659 5660 5661 5663 5666 5670 5673 5676 5680 5683 5688 5692 5696 5700 5705 5709 5713 5717 5720 5723 5726 5730 5732 5736 5738 5741 5743
5679 5677 5675 5672 5670 5667 5665 5663 5661 5659 5656 5655 5654 5654 5653 5652 5651 5651 5652 5653 5654 5656 5659 5663 5666 5670 5674 5678 5682 5686 5690 5694 5698 5702 5706 5710 5712 5715 5719 5722 5725 5728 5731 5734
5674 5673 5670 5667 5665 5662 5660 5657 5655 5653 5651 5649 5648 5648 5648 5646 5645 5644 5644 5644 5645 5647 5650 5653 5656 5660 5664 5668 5672 5676 5680 5684 5688 5692 5696 5699 5702 5704 5708 5712 5715 5719 5721 5725
5669 5667 5665 5662 5660 5657 5655 5653 5650 5648 5646 5644 5643 5641 5643 5641 5639 5638 5638 5639 5639 5640 5641 5644 5647 5651 5655 5659 5662 5667 5670 5674 5678 5682 5685 5689 5692 5695 5698 5702 5705 5709 5712 5715
5664 5662 5660 5657 5655 5652 5650 5647 5646 5644 5641 5640 5638 5636 5637 5635 5634 5634 5633 5633 5633 5633 5634 5636 5639 5642 5646 5649 5653 5657 5661 5664 5668 5672 5675 5679 5682 5684 5687 5691 5695 5699 5702 5705
5658 5656 5654 5652 5650 5648 5645 5643 5641 5639 5637 5636 5634 5632 5631 5629 5628 5628 5627 5627 5627 5627 5627 5629 5631 5634 5637 5640 5644 5647 5651 5654 5658 5661 5665 5668 5671 5673 5677 5680 5684 5688 5692 5695
5654 5652 5649 5647 5645 5643 5641 5639 5637 5633 5631 5631 5629 5627 5626 5624 5623 5622 5621 5621 5621 5620 5621 5622 5624 5626 5629 5632 5635 5638 5641 5645 5648 5651 5654 5658 5660 5663 5666 5670 5674 5678 5682 5685
5649 5647 5645 5642 5640 5638 5636 5634 5632 5629 5626 5625 5624 5621 5622 5619 5617 5616 5615 5615 5614 5614 5614 5615 5617 5618 5621 5624 5627 5629 5632 5635 5638 5641 5644 5647 5649 5653 5656 5660 5664 5667 5671 5675
5643 5642 5639 5637 5634 5633 5631 5629 5626 5624 5621 5619 5617 5616 5616 5614 5612 5611 5610 5609 5608 5608 5608 5609 5610 5612 5614 5616 5619 5621 5623 5625 5628 5630 5633 5636 5639 5642 5646 5650 5654 5657 5661 5665
5638 5636 5635 5632 5630 5627 5626 5623 5621 5618 5615 5613 5612 5611 5610 5608 5607 5606 5605 5604 5603 5602 5602 5602 5604 5606 5608 5609 5611 5612 5614 5616 5618 5620 5622 5625 5628 5631 5635 5639 5643 5647 5651 5654
5633 5631 5629 5627 5625 5623 5621 5619 5615 5613 5610 5608 5605 5608 5605 5603 5601 5600 5599 5598 5598 5597 5597 5597 5598 5599 5600 5601 5603 5604 5605 5606 5609 5611 5613 5615 5618 5621 5625 5629 5633 5637 5640 5644
5627 5625 5623 5622 5620 5617 5615 5613 5611 5609 5606 5603 5600 5604 5599 5597 5595 5593 5593 5592 5592 5591 5591 5591 5592 5592 5593 5595 5595 5596 5597 5598 5599 5601 5603 5606 5609 5612 5615 5619 5623 5626 5630 5633
5622 5620 5618 5616 5616 5613 5610 5607 5605 5603 5601 5598 5595 5598 5594 5591 5589 5587 5587 5586 5585 5585 5584 5584 5585 5585 5586 5587 5587 5588 5588 5589 5590 5591 5594 5596 5599 5603 5606 5609 5613 5616 5620 5623
5616 5614 5613 5611 5608 5606 5604 5602 5599 5597 5594 5592 5591 5590 5589 5586 5584 5582 5580 5579 5579 5578 5578 5577 5578 5578 5579 5579 5579 5580 5580 5580 5581 5582 5585 5587 5590 5594 5597 5600 5603 5606 5610 5613
5610 5608 5606 5604 5602 5600 5598 5596 5593 5590 5588 5586 5585 5583 5582 5579 5577 5575 5574 5573 5572 5572 5571 5571 5571 5571 5571 5572 5572 5572 5572 5572 5573 5574 5577 5579 5582 5585 5588 5591 5594 5597 5600 5604
5603 5602 5600 5598 5596 5593 5592 5590 5587 5584 5582 5580 5578 5577 5575 5572 5571 5569 5568 5566 5565 5565 5564 5564 5564 5564 5565 5565 5565 5565 5564 5565 5565 5567 5569 5571 5574 5576 5579 5582 5585 5588 5591 5594
5598 5595 5593 5592 5590 5587 5586 5585 5581 5579 5576 5574 5572 5572 5568 5567 5565 5563 5561 5560 5559 5558 5558 5558 5558 5558 5558 5558 5558 5558 5557 5557 5558 5559 5561 5564 5566 5568 5571 5573 5576 5579 5582 5585
5592 5589 5587 5585 5584 5581 5583 5577 5575 5572 5570 5568 5566 5564 5562 5560 5558 5556 5554 5553 5552 5551 5551 5551 5551 5551 5551 5551 5551 5551 5551 5551 5552 5553 5555 5557 5559 5561 5563 5565 5568 5571 5574 5577
5586 5584 5581 5579 5576 5575 5575 5571 5568 5566 5565 5562 5560 5558 5556 5553 5552 5550 5548 5546 5545 5545 5544 5544 5544 5544 5544 5544 5544 5545 5545 5545 5545 5547 5548 5550 5552 5554 5555 5558 5560 5563 5565 5568
5581 5579 5577 5574 5571 5569 5569 5565 5561 5560 5558 5556 5553 5551 5549 5547 5547 5546 5543 5540 5539 5538 5537 5537 5536 5536 5536 5536 5537 5537 5537 5538 5539 5540 5541 5543 5544 5546 5548 5550 5552 5555 5557 5560
5575 5573 5571 5568 5565 5564 5562 5559 5556 5555 5553 5549 5547 5545 5543 5541 5540 5539 5536 5534 5533 5532 5531 5530 5529 5529 5529 5529 5529 5530 5530 5530 5531 5533 5534 5535 5537 5539 5541 5543 5545 5547 5550 5553
5569 5567 5565 5562 5560 5561 5556 5552 5551 5549 5545 5543 5540 5538 5536 5535 5533 5531 5530 5528 5527 5525 5524 5523 5523 5522 5522 5522 5522 5522 5522 5523 5524 5525 5527 5528 5530 5532 5534 5536 5538 5540 5542 5545
5563 5562 5558 5557 5557 5553 5549 5546 5544 5542 5540 5537 5535 5533 5531 5529 5527 5525 5524 5522 5521 5520 5518 5517 5516 5516 5515 5515 5515 5515 5515 5516 5517 5518 5520 5521 5523 5524 5526 5528 5530 5532 5534 5537
5557 5554 5552 5550 5549 5546 5543 5540 5538 5536 5534 5531 5529 5527 5525 5523 5521 5520 5518 5517 5516 5514 5513 5512 5510 5510 5509 5509 5509 5508 5509 5509 5510 5512 5513 5514 5515 5517 5519 5521 5522 5524 5527 5529
5550 5547 5545 5543 5541 5539 5537 5534 5532 5530 5527 5525 5523 5521 5519 5517 5516 5514 5513 5511 5510 5509 5507 5506 5505 5504 5503 5503 5503 5502 5502 5503 5504 5505 5506 5507 5508 5510 5511 5513 5515 5517 5519 5521
5543 5540 5538 5537 5535 5532 5531 5528 5526 5524 5521 5519 5517 5516 5514 5512 5510 5508 5507 5506 5505 5504 5502 5501 5500 5499 5498 5497 5497 5496 5496 5497 5497 5498 5499 5500 5502 5503 5504 5506 5508 5509 5512 5514